TimeMST,TemperatureF,Dew PointF,Humidity,Sea Level PressureIn,VisibilityMPH,Wind Direction,Wind SpeedMPH,Gust SpeedMPH,PrecipitationIn,Events,Conditions,WindDirDegrees,DateUTC
12:53 AM,44.1,30.9,60,29.53,10.0,SSW,13.8,-,N/A,,Clear,200,2012-11-10 07:53:00
1:53 AM,46.9,30.9,54,29.52,10.0,South,13.8,-,N/A,,Clear,190,2012-11-10 08:53:00
2:53 AM,50.0,32.0,50,29.50,10.0,SSW,16.1,23.0,N/A,,Clear,200,2012-11-10 09:53:00
3:53 AM,52.0,32.0,47,29.49,10.0,SSW,16.1,-,N/A,,Clear,200,2012-11-10 10:53:00
4:53 AM,46.9,32.0,56,29.52,10.0,South,16.1,-,N/A,,Clear,190,2012-11-10 11:53:00
5:53 AM,45.0,34.0,65,29.51,10.0,South,13.8,-,N/A,,Clear,180,2012-11-10 12:53:00
6:53 AM,45.0,36.0,71,29.51,10.0,South,10.4,-,N/A,,Clear,180,2012-11-10 13:53:00
7:53 AM,53.1,39.0,59,29.47,10.0,South,17.3,-,N/A,,Clear,180,2012-11-10 14:53:00
8:53 AM,63.0,37.9,40,29.42,10.0,SSW,23.0,36.8,N/A,,Clear,200,2012-11-10 15:53:00
9:53 AM,68.0,36.0,31,29.40,9.0,SSW,28.8,46.0,N/A,,Clear,210,2012-11-10 16:53:00
10:29 AM,71.6,30.2,22,29.44,2.5,SW,31.1,50.6,N/A,,Haze,220,2012-11-10 17:29:00
10:41 AM,71.6,30.2,22,29.43,3.0,SW,39.1,52.9,N/A,,Haze,230,2012-11-10 17:41:00
10:53 AM,72.0,30.9,22,29.39,4.0,SSW,38.0,48.3,N/A,,Haze,210,2012-11-10 17:53:00
11:30 AM,73.4,28.4,19,29.43,5.0,SW,28.8,50.6,N/A,,Haze,220,2012-11-10 18:30:00
11:40 AM,73.4,30.2,20,29.43,6.0,SSW,34.5,51.8,N/A,,Haze,210,2012-11-10 18:40:00
11:53 AM,73.0,30.0,20,29.37,7.0,SW,39.1,52.9,N/A,,Overcast,220,2012-11-10 18:53:00
12:53 PM,72.0,30.9,22,29.36,7.0,WSW,32.2,43.7,N/A,,Overcast,240,2012-11-10 19:53:00
1:19 PM,53.6,33.8,47,29.46,10.0,NNW,17.3,27.6,N/A,,Mostly Cloudy,340,2012-11-10 20:19:00
1:27 PM,50.0,33.8,54,29.47,10.0,NNW,19.6,27.6,N/A,,Mostly Cloudy,340,2012-11-10 20:27:00
1:53 PM,48.9,34.0,56,29.45,10.0,NNW,17.3,-,N/A,,Partly Cloudy,340,2012-11-10 20:53:00
2:53 PM,46.0,36.0,68,29.47,10.0,NNW,13.8,-,0.00,Rain-Thunderstorm,Light Rain,340,2012-11-10 21:53:00
3:25 PM,46.4,39.2,76,29.55,10.0,NNW,18.4,23.0,0.00,Rain,Light Rain,330,2012-11-10 22:25:00
3:53 PM,43.0,37.9,82,29.53,9.0,NNW,18.4,-,0.00,Rain,Light Rain,330,2012-11-10 22:53:00
4:53 PM,41.0,35.1,79,29.59,10.0,NNW,18.4,27.6,0.00,,Mostly Cloudy,330,2012-11-10 23:53:00
5:10 PM,39.2,35.6,87,29.60,10.0,NNW,18.4,-,N/A,,Mostly Cloudy,340,2012-11-11 00:10:00
5:53 PM,39.9,34.0,79,29.62,10.0,NNW,17.3,-,N/A,,Overcast,340,2012-11-11 00:53:00
6:53 PM,39.0,33.1,79,29.68,10.0,North,17.3,24.2,N/A,,Overcast,360,2012-11-11 01:53:00
7:28 PM,37.4,30.2,75,29.70,10.0,NNW,24.2,31.1,N/A,,Overcast,340,2012-11-11 02:28:00
7:53 PM,35.1,28.0,76,29.73,10.0,North,17.3,-,N/A,,Overcast,350,2012-11-11 02:53:00
8:29 PM,33.8,28.4,81,29.75,10.0,North,18.4,25.3,N/A,,Mostly Cloudy,350,2012-11-11 03:29:00
8:53 PM,32.0,26.6,80,29.76,10.0,North,21.9,27.6,N/A,,Overcast,350,2012-11-11 03:53:00
9:09 PM,30.2,24.8,80,29.77,10.0,NNW,18.4,-,N/A,,Mostly Cloudy,340,2012-11-11 04:09:00
9:38 PM,30.2,24.8,80,29.79,10.0,NNW,21.9,28.8,N/A,,Mostly Cloudy,340,2012-11-11 04:38:00
9:53 PM,28.9,23.0,78,29.75,10.0,NNW,16.1,-,N/A,,Overcast,340,2012-11-11 04:53:00
10:13 PM,28.4,23.0,80,29.80,10.0,NNW,17.3,-,N/A,,Mostly Cloudy,340,2012-11-11 05:13:00
10:21 PM,28.4,21.2,74,29.80,10.0,NNW,17.3,23.0,N/A,,Overcast,340,2012-11-11 05:21:00
10:53 PM,28.0,21.9,78,29.78,10.0,North,18.4,-,N/A,,Overcast,350,2012-11-11 05:53:00
11:53 PM,26.1,19.9,78,29.79,10.0,North,19.6,25.3,N/A,,Overcast,360,2012-11-11 06:53:00